Date String (YYYY-MM-DD hh:mm:ss) UTC,Instrument flags,Ambient pressure (hPa),Sample flow (lpm),Bypass flow (lpm),Sample temperature (°C),Ambient temperature (°C),ASC tube jacket temperature (°C),LED temperature (°C),Box temperature (°C),Sample RH (%),Span deviation,Mass concentration (μg/m³),Mass concentration (μg/m³),Mass concentration (μg/m³)
DateTimeUTC,F1_M11,P_M11,Q1_M11,Q2_M11,T1_M11,T2_M11,T3_M11,T4_M11,T5_M11,U1_M11,ZSPAN_M11,X0_M11,X2_M11,X1_M11
2021-10-27 06:00:00,,0819.4,4.98,0.00,25.2,24.4,00.0,34.3,27.0,18.8,0000.0,0007.01,0001.42,0000.55
2021-10-27 06:01:00,,0819.4,4.99,0.00,25.2,24.3,00.0,34.3,26.9,18.8,0000.0,0007.14,0001.42,0000.56
2021-10-27 06:02:00,,0819.5,5.01,0.00,25.1,24.3,00.0,34.3,26.9,18.8,0000.0,0007.36,0001.45,0000.57
2021-10-27 06:03:00,,0819.5,5.00,0.00,25.1,24.3,00.0,34.3,26.9,18.8,0000.0,0007.29,0001.38,0000.56
2021-10-27 06:04:00,,0819.5,4.99,0.00,25.1,24.2,00.0,34.3,26.9,18.8,0000.0,0007.26,0001.36,0000.55
2021-10-27 06:05:00,,0819.5,5.01,0.00,25.1,24.3,00.0,34.2,26.9,18.8,0000.0,0007.29,0001.34,0000.54
2021-10-27 06:06:00,,0819.6,4.99,0.00,25.1,24.3,00.0,34.2,26.9,18.7,0000.0,0007.64,0001.30,0000.53
2021-10-27 06:07:00,,0819.5,5.02,0.00,25.1,24.4,00.0,34.2,26.9,18.7,0000.0,0006.66,0001.33,0000.53
2021-10-27 06:08:00,,0819.5,4.99,0.00,25.1,24.4,00.0,34.2,26.9,18.7,0000.0,0005.36,0001.28,0000.52
2021-10-27 06:09:00,,0819.5,4.99,0.00,25.1,24.5,00.0,34.2,26.9,18.7,0000.0,0005.16,0001.23,0000.50
2021-10-27 06:10:00,,0819.6,5.01,0.00,25.1,24.5,00.0,34.2,26.9,18.7,0000.0,0005.10,0001.20,0000.49
2021-10-27 06:11:00,,0819.6,4.99,0.00,25.1,24.5,00.0,34.2,26.9,18.7,0000.0,0005.20,0001.14,0000.47
2021-10-27 06:12:00,,0819.6,5.00,0.00,25.1,24.5,00.0,34.2,27.0,18.7,0000.0,0005.02,0001.11,0000.46
2021-10-27 06:13:00,,0819.6,5.00,0.00,25.1,24.5,00.0,34.2,27.0,18.6,0000.0,0005.29,0001.04,0000.45
2021-10-27 06:14:00,,0819.7,5.00,0.00,25.2,24.6,00.0,34.2,27.0,18.6,0000.0,0006.09,0001.05,0000.45
2021-10-27 06:15:00,,0819.6,5.00,0.00,25.1,24.5,00.0,34.2,27.0,18.5,0000.0,0006.74,0001.04,0000.44
2021-10-27 06:16:00,,0819.6,5.01,0.00,25.1,24.4,00.0,34.2,27.0,18.5,0000.0,0006.67,0001.02,0000.44
2021-10-27 06:17:00,,0819.6,5.00,0.00,25.1,24.4,00.0,34.2,27.0,18.5,0000.0,0005.58,0001.01,0000.42
2021-10-27 06:18:00,,0819.7,5.01,0.00,25.1,24.4,00.0,34.2,27.0,18.5,0000.0,0004.95,0000.91,0000.41
2021-10-27 06:19:00,,0819.7,5.02,0.00,25.1,24.4,00.0,34.2,27.0,18.5,0000.0,0006.66,0000.91,0000.40
2021-10-27 06:20:00,,0819.7,4.99,0.00,25.1,24.5,00.0,34.2,27.0,18.4,0000.0,0007.30,0000.91,0000.39
2021-10-27 06:21:00,,0819.7,5.01,0.00,25.2,24.5,00.0,34.2,27.0,18.3,0000.0,0007.14,0000.91,0000.39
2021-10-27 06:22:00,,0819.8,5.00,0.00,25.2,24.6,00.0,34.2,27.0,18.3,0000.0,0006.89,0000.91,0000.40
2021-10-27 06:23:00,,0819.8,4.99,0.00,25.2,24.6,00.0,34.2,27.1,18.3,0000.0,0007.12,0000.88,0000.39
2021-10-27 06:24:00,,0819.9,5.01,0.00,25.2,24.6,00.0,34.2,27.1,18.1,0000.0,0007.20,0000.90,0000.38
2021-10-27 06:25:00,,0819.9,5.00,0.00,25.3,24.7,00.0,34.3,27.1,17.9,0000.0,0006.47,0000.89,0000.38
2021-10-27 06:26:00,,0819.8,5.00,0.00,25.3,24.7,00.0,34.3,27.2,17.8,0000.0,0006.36,0000.92,0000.38
2021-10-27 06:27:00,,0819.8,4.99,0.00,25.3,24.7,00.0,34.3,27.2,17.9,0000.0,0006.51,0000.92,0000.38
2021-10-27 06:28:00,,0819.8,5.00,0.00,25.3,24.7,00.0,34.3,27.2,17.9,0000.0,0006.98,0000.91,0000.38
2021-10-27 06:29:00,,0819.8,4.99,0.00,25.4,24.8,00.0,34.3,27.3,17.9,0000.0,0007.56,0000.91,0000.37
2021-10-27 06:30:00,,0819.8,5.01,0.00,25.4,24.8,00.0,34.3,27.3,17.9,0000.0,0007.58,0000.92,0000.37
2021-10-27 06:31:00,,0819.9,5.00,0.00,25.4,24.8,00.0,34.3,27.3,17.8,0000.0,0007.39,0000.92,0000.37
2021-10-27 06:32:00,,0819.9,5.01,0.00,25.4,24.8,00.0,34.3,27.3,17.7,0000.0,0007.52,0000.95,0000.36
2021-10-27 06:33:00,,0819.9,5.01,0.00,25.4,24.8,00.0,34.4,27.3,17.7,0000.0,0007.67,0000.93,0000.34
2021-10-27 06:34:00,,0819.9,4.99,0.00,25.4,24.8,00.0,34.4,27.3,17.8,0000.0,0007.56,0000.94,0000.34
2021-10-27 06:35:00,,0819.9,5.00,0.00,25.4,24.8,00.0,34.4,27.3,17.8,0000.0,0007.27,0000.89,0000.33
2021-10-27 06:36:00,,0819.9,5.01,0.00,25.4,24.8,00.0,34.4,27.3,17.8,0000.0,0007.85,0000.87,0000.33
2021-10-27 06:37:00,,0819.9,4.99,0.00,25.4,24.8,00.0,34.4,27.3,17.8,0000.0,0007.59,0000.81,0000.32
2021-10-27 06:38:00,,0820.0,5.01,0.00,25.5,24.8,00.0,34.4,27.4,17.8,0000.0,0007.53,0000.79,0000.32
2021-10-27 06:39:00,,0819.9,4.99,0.00,25.5,24.8,00.0,34.4,27.4,17.8,0000.0,0007.01,0000.79,0000.31
2021-10-27 06:40:00,,0819.9,4.99,0.00,25.5,24.8,00.0,34.4,27.4,17.8,0000.0,0006.29,0000.81,0000.32
2021-10-27 06:41:00,,0819.9,5.00,0.00,25.5,24.8,00.0,34.4,27.4,17.8,0000.0,0004.88,0000.81,0000.31
2021-10-27 06:42:00,,0819.9,5.00,0.00,25.5,24.8,00.0,34.4,27.4,17.8,0000.0,0004.29,0000.81,0000.32
2021-10-27 06:43:00,,0819.9,5.00,0.00,25.5,24.8,00.0,34.5,27.4,17.7,0000.0,0003.89,0000.75,0000.32
2021-10-27 06:44:00,,0819.9,5.00,0.00,25.5,24.8,00.0,34.5,27.4,17.7,0000.0,0003.44,0000.72,0000.33
2021-10-27 06:45:00,,0819.9,4.99,0.00,25.5,24.8,00.0,34.5,27.4,17.7,0000.0,0003.32,0000.72,0000.33
2021-10-27 06:46:00,,0819.9,5.01,0.00,25.5,24.8,00.0,34.5,27.3,17.7,0000.0,0003.11,0000.77,0000.34
2021-10-27 06:47:00,,0819.9,5.00,0.00,25.5,24.8,00.0,34.5,27.3,17.6,0000.0,0002.04,0000.79,0000.33
2021-10-27 06:48:00,,0819.9,4.99,0.00,25.5,24.8,00.0,34.5,27.3,17.6,0000.0,0002.10,0000.78,0000.34
2021-10-27 06:49:00,,0819.9,4.99,0.00,25.5,24.8,00.0,34.5,27.3,17.5,0000.0,0002.00,0000.78,0000.34
2021-10-27 06:50:00,,0819.9,5.01,0.00,25.5,24.8,00.0,34.5,27.4,17.5,0000.0,0001.97,0000.77,0000.33
2021-10-27 06:51:00,,0819.9,5.00,0.00,25.5,24.8,00.0,34.5,27.4,17.3,0000.0,0001.92,0000.74,0000.33
2021-10-27 06:52:00,,0820.0,5.00,0.00,25.5,24.8,00.0,34.5,27.4,17.1,0000.0,0001.84,0000.70,0000.33
2021-10-27 06:53:00,,0819.9,4.99,0.00,25.6,24.8,00.0,34.5,27.4,17.1,0000.0,0001.78,0000.68,0000.32
2021-10-27 06:54:00,,0820.0,5.02,0.00,25.6,24.8,00.0,34.5,27.4,17.0,0000.0,0002.73,0000.69,0000.32
2021-10-27 06:55:00,,0820.0,4.98,0.00,25.6,24.8,00.0,34.5,27.4,17.1,0000.0,0003.20,0000.74,0000.31
2021-10-27 06:56:00,,0820.0,5.00,0.00,25.6,24.8,00.0,34.6,27.4,17.1,0000.0,0003.13,0000.72,0000.31
2021-10-27 06:57:00,,0820.1,5.01,0.00,25.6,24.8,00.0,34.6,27.4,17.1,0000.0,0003.04,0000.70,0000.31
2021-10-27 06:58:00,,0820.1,5.00,0.00,25.6,24.8,00.0,34.6,27.4,17.3,0000.0,0002.91,0000.70,0000.31
2021-10-27 06:59:00,,0820.1,5.00,0.00,25.6,24.8,00.0,34.6,27.4,17.1,0000.0,0003.36,0000.75,0000.32
